Muscatine, IA

1:37 AM CDT on March 28, 2017 (GMT -0500)
Muscatine Municipal

Weather History for KMUT - January, 2012

Change the Weather History Date:

Monday, January 2, 2012

  Actual Average Record
Temperature  
Mean Temperature 24 °F -  
Max Temperature 28 °F 31 °F 62 °F (2004)
Min Temperature 21 °F 15 °F -17 °F (1979)
Degree Days  
Heating Degree Days 40    
Moisture  
Dew Point 7 °F    
Average Humidity 49    
Maximum Humidity 68    
Minimum Humidity 31    
Precipitation  
Precipitation 0.00 in - - ()
Sea Level Pressure  
Sea Level Pressure 30.35 in    
Wind  
Wind Speed 25 mph (NW)    
Max Wind Speed 34 mph    
Max Gust Speed 44 mph    
Visibility 10 miles    
Events Snow    
Averages and records for this station are not official NWS values.
T = Trace of Precipitation, MM = Missing Value Source: NWS Daily Summary

Daily Weather History Graph

Daily Weather History Graph

Search for Another Location

Airport or City:

Trip Planner

Search our weather history database for the weather conditions in past years. The results will help you decide how hot, cold, wet, or windy it might be!

Date:

Astronomy

Jan. 02, 2012 Rise Set
Actual Time 7:30 AM CST 4:46 PM CST
Civil Twilight 6:59 AM CST 5:17 PM CST
Nautical Twilight 6:24 AM CST 5:52 PM CST
Astronomical Twilight 5:51 AM CST 6:25 PM CST
Moon 12:04 PM CST (1/2) 1:22 AM CST (1/2)
Length of Visible Light 10h 18m
Length of Day
9h 15m
Waxing Gibbous, 64% of the Moon is Illuminated
Jan 2
Waxing Gibbous
Jan 9
Full
Jan 16
Last Quarter
Jan 23
New
Jan 30
First Quarter

Hourly Weather History & Observations

Time (CST) Temp. Windchill Dew Point Humidity Pressure Visibility Wind Dir Wind Speed Gust Speed Precip Events Conditions
12:15 AM 24.8 °F 7.9 °F 12.2 °F 59% 30.27 in 10.0 mi WNW 29.9 mph 39.1 mph N/A   Mostly Cloudy
12:35 AM 24.8 °F 8.4 °F 10.4 °F 54% 30.28 in 10.0 mi NW 27.6 mph 38.0 mph N/A   Scattered Clouds
12:55 AM 23.0 °F 6.3 °F 10.4 °F 59% 30.28 in 10.0 mi WNW 26.5 mph 38.0 mph N/A   Clear
1:15 AM 23.0 °F 6.3 °F 10.4 °F 59% 30.29 in 10.0 mi WNW 26.5 mph 35.7 mph N/A   Mostly Cloudy
1:35 AM 23.0 °F 4.4 °F 10.4 °F 59% 30.28 in 10.0 mi WNW 34.5 mph 41.4 mph N/A   Overcast
1:55 AM 24.8 °F 7.6 °F 10.4 °F 54% 30.29 in 10.0 mi NW 31.1 mph 39.1 mph N/A   Overcast
2:35 AM 24.8 °F 9.6 °F 10.4 °F 54% 30.29 in 10.0 mi NW 23.0 mph 36.8 mph N/A   Overcast
2:55 AM 24.8 °F 7.9 °F 12.2 °F 59% 30.29 in 10.0 mi WNW 29.9 mph 36.8 mph N/A Snow Light Snow
3:15 AM 24.8 °F 7.6 °F 10.4 °F 54% 30.29 in 10.0 mi WNW 31.1 mph 41.4 mph N/A Snow Light Snow
3:35 AM 24.8 °F 8.1 °F 10.4 °F 54% 30.28 in 10.0 mi WNW 28.8 mph 43.7 mph N/A Snow Light Snow
3:55 AM 24.8 °F 9.3 °F 10.4 °F 54% 30.29 in 10.0 mi NW 24.2 mph 35.7 mph N/A   Overcast
4:35 AM 24.8 °F 9.6 °F 8.6 °F 50% 30.28 in 10.0 mi NW 23.0 mph 38.0 mph N/A   Overcast
4:55 AM 24.8 °F 8.4 °F 10.4 °F 54% 30.29 in 10.0 mi NW 27.6 mph 39.1 mph N/A   Overcast
5:15 AM 24.8 °F 10.0 °F 10.4 °F 54% 30.29 in 10.0 mi NW 21.9 mph 27.6 mph N/A   Overcast
5:35 AM 24.8 °F 8.1 °F 10.4 °F 54% 30.29 in 10.0 mi NW 28.8 mph 35.7 mph N/A Snow Light Snow
5:55 AM 23.0 °F 7.2 °F 8.6 °F 54% 30.30 in 10.0 mi NW 23.0 mph 29.9 mph N/A   Overcast
6:15 AM 23.0 °F 9.6 °F 6.8 °F 50% 30.30 in 10.0 mi WNW 16.1 mph 27.6 mph N/A   Overcast
6:35 AM 23.0 °F 8.0 °F 6.8 °F 50% 30.30 in 10.0 mi NW 20.7 mph 27.6 mph N/A   Overcast
6:55 AM 23.0 °F 8.3 °F 8.6 °F 54% 30.31 in 10.0 mi NW 19.6 mph 32.2 mph N/A   Overcast
7:15 AM 23.0 °F 8.3 °F 8.6 °F 54% 30.31 in 10.0 mi NW 19.6 mph 28.8 mph N/A   Overcast
7:35 AM 23.0 °F 8.3 °F 8.6 °F 54% 30.32 in 10.0 mi NW 19.6 mph 31.1 mph N/A Snow Light Snow
7:55 AM 23.0 °F 7.6 °F 12.2 °F 63% 30.32 in 7.0 mi WNW 21.9 mph 27.6 mph N/A Snow Light Snow
8:15 AM 21.2 °F 6.8 °F 12.2 °F 68% 30.33 in 7.0 mi WNW 17.3 mph 25.3 mph N/A Snow Light Snow
8:35 AM 23.0 °F 8.0 °F 12.2 °F 63% 30.34 in 7.0 mi NW 20.7 mph 27.6 mph N/A Snow Light Snow
8:55 AM 23.0 °F 8.3 °F 10.4 °F 59% 30.35 in 7.0 mi NW 19.6 mph 26.5 mph N/A Snow Light Snow
9:15 AM 23.0 °F 9.6 °F 10.4 °F 59% 30.36 in 7.0 mi NW 16.1 mph 31.1 mph N/A Snow Light Snow
9:35 AM 21.2 °F 5.6 °F 12.2 °F 68% 30.36 in 2.5 mi NW 20.7 mph 26.5 mph N/A Snow Light Snow
10:15 AM 24.8 °F 9.3 °F 8.6 °F 50% 30.36 in 10.0 mi NW 24.2 mph 32.2 mph N/A   Overcast
10:35 AM 24.8 °F 11.1 °F 6.8 °F 46% 30.36 in 10.0 mi NW 18.4 mph 26.5 mph N/A   Mostly Cloudy
10:55 AM 24.8 °F 10.0 °F 3.2 °F 40% 30.36 in 10.0 mi NW 21.9 mph 35.7 mph N/A   Overcast
11:15 AM 24.8 °F 10.0 °F 6.8 °F 46% 30.36 in 10.0 mi NNW 21.9 mph 29.9 mph N/A   Overcast
11:35 AM 24.8 °F 10.3 °F 6.8 °F 46% 30.36 in 10.0 mi NNW 20.7 mph 32.2 mph N/A   Overcast
11:55 AM 24.8 °F 9.3 °F 8.6 °F 50% 30.37 in 10.0 mi NNW 24.2 mph 29.9 mph N/A   Overcast
12:15 PM 24.8 °F 8.4 °F 3.2 °F 40% 30.36 in 10.0 mi NNW 27.6 mph 34.5 mph N/A   Overcast
12:35 PM 24.8 °F 9.0 °F 8.6 °F 50% 30.37 in 7.0 mi NW 25.3 mph 32.2 mph N/A Snow Light Snow
12:55 PM 24.8 °F 8.7 °F 1.4 °F 36% 30.37 in 10.0 mi NW 26.5 mph 33.4 mph N/A   Overcast
1:15 PM 24.8 °F 10.7 °F -0.4 °F 34% 30.37 in 10.0 mi NNW 19.6 mph 26.5 mph N/A   Mostly Cloudy
1:35 PM 26.6 °F 12.0 °F 1.4 °F 34% 30.37 in 10.0 mi NW 23.0 mph 34.5 mph N/A   Mostly Cloudy
2:15 PM 26.6 °F 11.4 °F 3.2 °F 37% 30.37 in 10.0 mi NNW 25.3 mph 33.4 mph N/A   Mostly Cloudy
2:35 PM 26.6 °F 11.7 °F 1.4 °F 34% 30.38 in 10.0 mi NW 24.2 mph 32.2 mph N/A   Scattered Clouds
2:55 PM 28.4 °F 14.4 °F 1.4 °F 31% 30.39 in 10.0 mi NW 23.0 mph 32.2 mph N/A   Clear
3:15 PM 26.6 °F 11.4 °F 1.4 °F 34% 30.39 in 10.0 mi NNW 25.3 mph 32.2 mph N/A   Clear
3:35 PM 26.6 °F 11.1 °F 1.4 °F 34% 30.40 in 10.0 mi NW 26.5 mph 33.4 mph N/A   Clear
3:55 PM 26.6 °F 12.0 °F 1.4 °F 34% 30.41 in 10.0 mi NW 23.0 mph 28.8 mph N/A   Clear
4:15 PM 26.6 °F 13.8 °F 1.4 °F 34% 30.42 in 10.0 mi NW 17.3 mph 28.8 mph N/A   Clear
4:35 PM 24.8 °F 12.9 °F 3.2 °F 40% 30.43 in 10.0 mi NW 13.8 mph 19.6 mph N/A   Clear
4:55 PM 24.8 °F 12.9 °F 3.2 °F 40% 30.44 in 10.0 mi NW 13.8 mph 17.3 mph N/A   Clear
5:15 PM 24.8 °F 14.0 °F 3.2 °F 40% 30.44 in 10.0 mi NW 11.5 mph - N/A   Clear
5:35 PM 23.0 °F 12.4 °F 3.2 °F 43% 30.45 in 10.0 mi NW 10.4 mph 17.3 mph N/A   Clear
5:55 PM 23.0 °F 12.4 °F 3.2 °F 43% 30.45 in 10.0 mi NW 10.4 mph - N/A   Clear
6:15 PM 21.2 °F 10.9 °F 3.2 °F 46% 30.46 in 10.0 mi NW 9.2 mph - N/A   Clear
6:35 PM 21.2 °F 12.6 °F 3.2 °F 46% 30.46 in 10.0 mi NW 6.9 mph - N/A   Clear
6:55 PM 21.2 °F 10.9 °F 5.0 °F 50% 30.47 in 10.0 mi NW 9.2 mph - N/A   Clear
7:35 PM 19.4 °F 10.4 °F 5.0 °F 54% 30.48 in 10.0 mi NW 6.9 mph - N/A   Clear
7:55 PM 19.4 °F 9.5 °F 5.0 °F 54% 30.48 in 10.0 mi WNW 8.1 mph - N/A   Clear
8:15 PM 17.6 °F 6.4 °F 6.8 °F 63% 30.48 in 10.0 mi WNW 9.2 mph - N/A   Clear
8:35 PM 17.6 °F 7.3 °F 6.8 °F 63% 30.48 in 10.0 mi WNW 8.1 mph - N/A   Clear
8:55 PM 17.6 °F 7.3 °F 6.8 °F 63% 30.48 in 10.0 mi WNW 8.1 mph - N/A   Clear
9:15 PM 17.6 °F 9.3 °F 6.8 °F 63% 30.49 in 10.0 mi NW 5.8 mph - N/A   Clear
9:35 PM 17.6 °F 12.3 °F 6.8 °F 63% 30.49 in 10.0 mi WNW 3.5 mph - N/A   Clear
9:55 PM 17.6 °F 9.3 °F 6.8 °F 63% 30.49 in 10.0 mi NW 5.8 mph - N/A   Clear
10:15 PM 15.8 °F 7.2 °F 6.8 °F 68% 30.50 in 10.0 mi NW 5.8 mph - N/A   Clear
10:35 PM 15.8 °F 8.6 °F 6.8 °F 68% 30.50 in 10.0 mi NW 4.6 mph - N/A   Clear
10:55 PM 15.8 °F 7.2 °F 6.8 °F 68% 30.50 in 10.0 mi NW 5.8 mph - N/A   Clear
11:15 PM 15.8 °F 6.1 °F 6.8 °F 68% 30.50 in 10.0 mi NW 6.9 mph - N/A   Clear
11:35 PM 14.0 °F 2.9 °F 6.8 °F 73% 30.50 in 10.0 mi NW 8.1 mph - N/A   Clear
11:55 PM 14.0 °F 2.9 °F 6.8 °F 73% 30.49 in 10.0 mi NNW 8.1 mph - N/A   Clear